Regional Weather Roundup
Issued by NWS

Home | Current Version | Previous Version | Text Only | Print | Product List | Glossary On
Versions: 1 2 3 4 5 6 7 8 9 10 11 12 13 14 15 16 17 18 19 20 21 22 23 24 25 26 27 28 29 30 31 32 33 34 35 36 37 38 39 40 41 42 43 44 45 46 47 48 49 50
000
ASUS45 KREV 311310
RWRNV
NEVADA REGIONAL WEATHER ROUNDUP
NATIONAL WEATHER SERVICE RENO NV
500 AM PST SAT JAN 31 2015

NOTE: "FAIR" INDICATES FEW OR NO CLOUDS BELOW 12,000 FEET WITH NO
SIGNIFICANT WEATHER AND/OR OBSTRUCTIONS TO VISIBILITY.

NVZ001-003-004-311400-
WESTERN NEVADA

CITY           SKY/WX    TMP DP  RH WIND       PRES   REMARKS
RENO           PTCLDY    27  24  89 S5        30.15S
CARSON CITY    FAIR      28  25  86 CALM      30.14R
SLIDE MTN        N/A     21  14  73 N28         N/A
FALLON         CLEAR     27  24  89 CALM      30.14R
LOVELOCK       CLEAR     25  22  88 N5        30.14R
HAWTHORNE      CLOUDY    39  32  75 NW10      30.12R
$$

NVZ002-CAZ072-073-311400-
NORTHERN AND CENTRAL SIERRA

CITY           SKY/WX    TMP DP  RH WIND       PRES   REMARKS
S. LAKE TAHOE  CLEAR     33  21  61 CALM      30.07R
TRUCKEE        CLEAR     21  21 100 S5        30.10F
SQUAW VLY 8000   N/A     25  19  80 CALM        N/A
SUSANVILLE     CLEAR     25  19  80 W3        30.17
BLUE CANYON    CLEAR     42   5  21 NE10G24   29.99R
MAMMOTH LAKES  MOCLDY    32  27  80 W6G17     30.07S
BRIDGEPORT     CLOUDY    31  25  78 CALM      30.05R
$$

NVZ030-031-036-311400-
NORTHERN NEVADA

CITY           SKY/WX    TMP DP  RH WIND       PRES   REMARKS
ELKO           CLEAR     25  23  92 NE5       30.06S
WINNEMUCCA     CLEAR     22  21  96 SW6       30.13F
WENDOVER       MOCLDY    36  27  69 NW7       30.00S
$$

NVZ035-037-311400-
CENTRAL NEVADA

CITY           SKY/WX    TMP DP  RH WIND       PRES   REMARKS
ELY            CLOUDY    32  30  92 N12       29.98R
EUREKA           N/A     31  26  82 N3        30.04R
$$

NVZ013-014-311400-
SOUTH CENTRAL NEVADA

CITY           SKY/WX    TMP DP  RH WIND       PRES   REMARKS
TONOPAH        CLOUDY    41  29  62 N15       29.97S
$$

NVZ017-020-022-311400-
SOUTHERN NEVADA

CITY           SKY/WX    TMP DP  RH WIND       PRES   REMARKS
LAS VEGAS      CLOUDY    49  46  90 SW9       29.83S
N. LAS VEGAS   LGT RAIN  50  43  77 N7        29.86S
NELLIS AFB     CLOUDY    49  49 100 CALM      29.86S
HENDERSON      CLOUDY    48  46  93 CALM      29.88S
MERCURY        CLOUDY    46  41  82 E5        29.88R
$$


USA.gov is the U.S. government's official web portal to all federal, state and local government web resources and services.